Meteo pe oră la Dzierzazna

Astăzi, 7 Martie, Duminică

Timp Temperatura Precipitaţii Vânt Presiune Umiditate
00:00 -3°C° 0 mm 6 m/s 755 mmHg 77%
01:00 -3°C° 0 mm 6 m/s 754 mmHg 79%
02:00 -3°C° 0 mm 7 m/s 754 mmHg 80%
03:00 -2°C° 0 mm 7 m/s 753 mmHg 81%
04:00 -2°C° 0 mm 8 m/s 753 mmHg 83%
05:00 -2°C° 0 mm 8 m/s 753 mmHg 83%
06:00 -2°C° 0 mm 8 m/s 752 mmHg 84%
07:00 -3°C° 0 mm 9 m/s 752 mmHg 86%
08:00 -3°C° 0.1 mm 9 m/s 752 mmHg 84%
09:00 -3°C° 0.1 mm 9 m/s 751 mmHg 83%
10:00 -3°C° 0.1 mm 9 m/s 751 mmHg 82%
11:00 -3°C° 0 mm 9 m/s 750 mmHg 77%
12:00 -1°C° 0 mm 9 m/s 750 mmHg 73%
13:00 -1°C° 0 mm 9 m/s 750 mmHg 69%
14:00 -1°C° 0 mm 9 m/s 749 mmHg 71%
15:00 -1°C° 0 mm 8 m/s 749 mmHg 72%
16:00 -1°C° 0 mm 8 m/s 748 mmHg 73%
17:00 -2°C° 0 mm 8 m/s 748 mmHg 76%
18:00 -2°C° 0 mm 7 m/s 748 mmHg 78%
19:00 -2°C° 0 mm 7 m/s 748 mmHg 80%
20:00 -3°C° 0.1 mm 7 m/s 748 mmHg 84%
21:00 -3°C° 0.1 mm 7 m/s 748 mmHg 88%
22:00 -3°C° 0.1 mm 6 m/s 748 mmHg 92%
23:00 -4°C° 0.4 mm 5 m/s 748 mmHg 90%

Mâine, 8 Martie, Luni

Timp Temperatura Precipitaţii Vânt Presiune Umiditate
00:00 -3°C° 0.4 mm 4 m/s 748 mmHg 88%
01:00 -2°C° 0.4 mm 3 m/s 749 mmHg 86%
02:00 -4°C° 0 mm 3 m/s 749 mmHg 86%
03:00 -4°C° 0 mm 3 m/s 749 mmHg 86%
04:00 -4°C° 0 mm 2 m/s 749 mmHg 86%
05:00 -5°C° 0 mm 3 m/s 749 mmHg 82%
06:00 -5°C° 0 mm 3 m/s 749 mmHg 79%
07:00 -5°C° 0 mm 3 m/s 750 mmHg 75%
08:00 -2°C° 0 mm 3 m/s 750 mmHg 69%
09:00 -2°C° 0 mm 4 m/s 751 mmHg 63%
10:00 -1°C° 0 mm 4 m/s 751 mmHg 57%
11:00 0°C° 0 mm 4 m/s 752 mmHg 55%
12:00 0°C° 0 mm 4 m/s 752 mmHg 54%
13:00 +1°C° 0 mm 4 m/s 752 mmHg 52%
14:00 0°C° 0 mm 4 m/s 752 mmHg 53%
15:00 0°C° 0 mm 4 m/s 752 mmHg 54%
16:00 0°C° 0 mm 4 m/s 752 mmHg 56%
17:00 -1°C° 0 mm 4 m/s 752 mmHg 61%
18:00 -1°C° 0 mm 3 m/s 753 mmHg 67%
19:00 -2°C° 0 mm 2 m/s 753 mmHg 73%
20:00 -3°C° 0 mm 2 m/s 753 mmHg 75%
21:00 -3°C° 0 mm 2 m/s 753 mmHg 77%
22:00 -3°C° 0 mm 2 m/s 753 mmHg 79%
23:00 -1°C° 0 mm 1 m/s 754 mmHg 80%

Poimâine, 9 Martie, Marţi

Timp Temperatura Precipitaţii Vânt Presiune Umiditate
00:00 -1°C° 0 mm 1 m/s 754 mmHg 80%
01:00 -2°C° 0 mm 1 m/s 754 mmHg 80%
02:00 -3°C° 0 mm 0 m/s 753 mmHg 79%
03:00 -3°C° 0 mm 0 m/s 753 mmHg 79%
04:00 -3°C° 0 mm 0 m/s 753 mmHg 78%
05:00 -2°C° 0 mm 0 m/s 753 mmHg 76%
06:00 -2°C° 0 mm 0 m/s 753 mmHg 75%
07:00 -1°C° 0 mm 1 m/s 754 mmHg 73%
08:00 0°C° 0 mm 1 m/s 754 mmHg 69%
09:00 0°C° 0 mm 1 m/s 754 mmHg 65%
10:00 +1°C° 0 mm 1 m/s 754 mmHg 60%
11:00 +2°C° 0 mm 1 m/s 753 mmHg 58%
12:00 +2°C° 0 mm 1 m/s 753 mmHg 55%
13:00 +2°C° 0 mm 1 m/s 753 mmHg 52%
14:00 +2°C° 0 mm 1 m/s 753 mmHg 51%
15:00 +3°C° 0 mm 1 m/s 752 mmHg 51%
16:00 +3°C° 0 mm 1 m/s 752 mmHg 51%
17:00 +2°C° 0 mm 1 m/s 752 mmHg 55%
18:00 +1°C° 0 mm 1 m/s 752 mmHg 60%
19:00 0°C° 0 mm 1 m/s 752 mmHg 64%
20:00 -3°C° 0 mm 2 m/s 752 mmHg 65%
21:00 -3°C° 0 mm 2 m/s 752 mmHg 67%
22:00 -3°C° 0 mm 2 m/s 752 mmHg 68%
23:00 -3°C° 0 mm 2 m/s 752 mmHg 69%

10 Martie, Miercuri

Timp Temperatura Precipitaţii Vânt Presiune Umiditate
00:00 -3°C° 0 mm 2 m/s 752 mmHg 69%
01:00 -1°C° 0 mm 1 m/s 752 mmHg 70%
02:00 -1°C° 0 mm 1 m/s 752 mmHg 69%
03:00 -1°C° 0 mm 1 m/s 752 mmHg 67%
04:00 -1°C° 0 mm 1 m/s 752 mmHg 66%
05:00 -2°C° 0 mm 0 m/s 752 mmHg 64%
06:00 -1°C° 0 mm 0 m/s 752 mmHg 62%
07:00 -1°C° 0 mm 0 m/s 753 mmHg 60%
08:00 0°C° 0 mm 0 m/s 753 mmHg 56%
09:00 +1°C° 0 mm 0 m/s 753 mmHg 51%
10:00 +2°C° 0 mm 0 m/s 753 mmHg 47%
11:00 +3°C° 0 mm 1 m/s 753 mmHg 44%
12:00 +4°C° 0 mm 1 m/s 754 mmHg 42%
13:00 +3°C° 0 mm 2 m/s 754 mmHg 39%
14:00 +3°C° 0 mm 2 m/s 753 mmHg 41%
15:00 +4°C° 0 mm 1 m/s 753 mmHg 42%
16:00 +4°C° 0 mm 1 m/s 753 mmHg 43%
17:00 +3°C° 0 mm 1 m/s 753 mmHg 46%
18:00 +2°C° 0 mm 1 m/s 753 mmHg 49%
19:00 +1°C° 0 mm 1 m/s 753 mmHg 53%
20:00 0°C° 0 mm 1 m/s 753 mmHg 53%
21:00 0°C° 0 mm 1 m/s 754 mmHg 54%
22:00 -2°C° 0 mm 2 m/s 754 mmHg 55%
23:00 -2°C° 0 mm 2 m/s 753 mmHg 55%

11 Martie, Joi

Timp Temperatura Precipitaţii Vânt Presiune Umiditate
00:00 -2°C° 0 mm 3 m/s 753 mmHg 56%
01:00 -2°C° 0 mm 3 m/s 753 mmHg 57%
02:00 -2°C° 0 mm 3 m/s 752 mmHg 57%
03:00 -3°C° 0 mm 4 m/s 751 mmHg 56%
04:00 -3°C° 0 mm 4 m/s 751 mmHg 56%
05:00 -2°C° 0 mm 5 m/s 750 mmHg 56%
06:00 -2°C° 0 mm 5 m/s 750 mmHg 56%
07:00 -3°C° 0 mm 6 m/s 749 mmHg 56%
08:00 -2°C° 0 mm 6 m/s 748 mmHg 55%
09:00 0°C° 0 mm 7 m/s 748 mmHg 55%
10:00 +2°C° 0 mm 7 m/s 747 mmHg 54%
11:00 0°C° 0.2 mm 8 m/s 746 mmHg 66%
12:00 0°C° 0.2 mm 8 m/s 746 mmHg 79%
13:00 0°C° 0.2 mm 8 m/s 745 mmHg 91%
14:00 0°C° 0.7 mm 8 m/s 744 mmHg 91%
15:00 0°C° 0.7 mm 8 m/s 743 mmHg 92%
16:00 0°C° 0.7 mm 8 m/s 742 mmHg 93%
17:00 0°C° 1.4 mm 8 m/s 742 mmHg 93%
18:00 +1°C° 1.4 mm 8 m/s 741 mmHg 93%
19:00 +1°C° 1.4 mm 8 m/s 741 mmHg 93%
20:00 +2°C° 0.5 mm 8 m/s 741 mmHg 93%
21:00 +4°C° 0.5 mm 8 m/s 741 mmHg 92%
22:00 +4°C° 0.5 mm 8 m/s 741 mmHg 91%
23:00 +4°C° 0 mm 7 m/s 741 mmHg 90%

12 Martie, Vineri

Timp Temperatura Precipitaţii Vânt Presiune Umiditate
00:00 +4°C° 0 mm 7 m/s 741 mmHg 90%
01:00 +3°C° 0 mm 6 m/s 741 mmHg 89%
02:00 +3°C° 0 mm 6 m/s 741 mmHg 88%
03:00 +3°C° 0 mm 6 m/s 742 mmHg 87%
04:00 +2°C° 0 mm 6 m/s 742 mmHg 87%
05:00 +2°C° 0 mm 7 m/s 742 mmHg 86%
06:00 +2°C° 0 mm 7 m/s 742 mmHg 85%
07:00 +2°C° 0 mm 7 m/s 743 mmHg 85%
08:00 +2°C° 0.1 mm 8 m/s 743 mmHg 79%
09:00 +3°C° 0.1 mm 9 m/s 743 mmHg 73%
10:00 +5°C° 0.1 mm 10 m/s 744 mmHg 67%
11:00 +5°C° 0.1 mm 9 m/s 744 mmHg 63%
12:00 +6°C° 0.1 mm 9 m/s 744 mmHg 59%
13:00 +6°C° 0.1 mm 9 m/s 744 mmHg 55%
14:00 +6°C° 0.1 mm 8 m/s 744 mmHg 56%
15:00 +6°C° 0.1 mm 8 m/s 744 mmHg 56%
16:00 +6°C° 0.1 mm 7 m/s 744 mmHg 56%
17:00 +5°C° 0 mm 6 m/s 744 mmHg 61%
18:00 +5°C° 0 mm 5 m/s 744 mmHg 65%
19:00 +4°C° 0 mm 4 m/s 745 mmHg 70%
20:00 +4°C° 0 mm 4 m/s 745 mmHg 71%
21:00 +3°C° 0 mm 5 m/s 745 mmHg 72%
22:00 +3°C° 0 mm 5 m/s 745 mmHg 73%
23:00 +3°C° 0 mm 5 m/s 745 mmHg 73%
Arată mai mult

Formular de consimțământ

Meteoprog și furnizorii noștri de servicii pot stoca și accesa date personale, precum cookies, identificatori de dispozitiv sau alte tehnologii similare pe dispozitivul dumneavoastră și procesa astfel de date pentru a personaliza conținutul și reclamele, dar și pentru a oferi caracteristici de social media și pentru a analiza traficul.

  • Stocarea și/sau accesarea informațiilor pe dispozitivul dumneavoastră

    Cookies, identificatori de dispozitiv sau alte informații pot fi stocate sau accesate pe dispozitiv în scopurile indicate mai sus.

  • Reclame și conținut personalizat, evaluarea reclamelor și a conținutului, informații despre audiențe și dezvoltarea produselor

    Reclamele și conținutul pot fi personalizate pe baza unui profil. Pot fi adăugate date suplimentare pentru a personaliza mai bine reclamele și conținutul. Performanța reclamelor și conținutului poate fi măsurată. Pot fi obținute informații despre utilizatorii care au văzut reclamele și conținutul. Aceste date pot fi utilizate pentru a dezvolta sau îmbunătăți experiența utilizatorilor, sistemele și software-ul.

Dând clic pe ‘Sunt de acord’, permiteți utilizarea cookie-urilor menționate, a identificatorilor de dispozitiv, balizelor web sau altor tehnologii similare. Setările pot fi modificate din browser-ul dispozitivului dumneavoastră.

În anumite scopuri, interesele legitime pot prima asupra consimțământului. Puteți citi mai multe informații în acest sens în Politica privind Confidențialitatea Datelor și Cookie.